TimeCDT,TemperatureF,Dew PointF,Humidity,Sea Level PressureIn,VisibilityMPH,Wind Direction,Wind SpeedMPH,Gust SpeedMPH,PrecipitationIn,Events,Conditions,WindDirDegrees,DateUTC
12:35 AM,-9999,-9999,N/A,30.18,10.0,Calm,Calm,-,N/A,,Clear,0,2013-07-30 05:35:00
12:55 AM,-9999,-9999,N/A,30.17,10.0,Calm,Calm,-,N/A,,Clear,0,2013-07-30 05:55:00
1:15 AM,-9999,-9999,N/A,30.17,10.0,Calm,Calm,-,N/A,,Clear,0,2013-07-30 06:15:00
1:35 AM,-9999,-9999,N/A,30.17,10.0,Calm,Calm,-,N/A,,Clear,0,2013-07-30 06:35:00
1:55 AM,-9999,-9999,N/A,30.17,10.0,Calm,Calm,-,N/A,,Clear,0,2013-07-30 06:55:00
2:15 AM,-9999,-9999,N/A,30.17,10.0,Calm,Calm,-,N/A,,Clear,0,2013-07-30 07:15:00
2:35 AM,-9999,-9999,N/A,30.18,10.0,Calm,Calm,-,N/A,,Clear,0,2013-07-30 07:35:00
2:55 AM,-9999,-9999,N/A,30.17,10.0,Calm,Calm,-,N/A,,Clear,0,2013-07-30 07:55:00
3:15 AM,-9999,-9999,N/A,30.17,10.0,Calm,Calm,-,N/A,,Clear,0,2013-07-30 08:15:00
3:35 AM,-9999,-9999,N/A,30.17,10.0,Calm,Calm,-,N/A,,Clear,0,2013-07-30 08:35:00
3:55 AM,-9999,-9999,N/A,30.17,10.0,Calm,Calm,-,N/A,,Clear,0,2013-07-30 08:55:00
4:15 AM,-9999,-9999,N/A,30.18,10.0,Calm,Calm,-,N/A,,Clear,0,2013-07-30 09:15:00
4:35 AM,-9999,-9999,N/A,30.18,6.0,Calm,Calm,-,N/A,,Clear,0,2013-07-30 09:35:00
4:55 AM,-9999,-9999,N/A,30.18,9.0,Calm,Calm,-,N/A,,Clear,0,2013-07-30 09:55:00
5:15 AM,-9999,-9999,N/A,30.17,10.0,Calm,Calm,-,N/A,,Clear,0,2013-07-30 10:15:00
5:35 AM,-9999,-9999,N/A,30.17,10.0,Calm,Calm,-,N/A,,Clear,0,2013-07-30 10:35:00
5:55 AM,-9999,-9999,N/A,30.18,10.0,Calm,Calm,-,N/A,,Clear,0,2013-07-30 10:55:00
6:15 AM,-9999,-9999,N/A,30.18,10.0,Calm,Calm,-,N/A,,Clear,0,2013-07-30 11:15:00
6:35 AM,-9999,-9999,N/A,30.18,10.0,Calm,Calm,-,N/A,,Clear,0,2013-07-30 11:35:00
6:55 AM,-9999,-9999,N/A,30.19,10.0,WSW,3.5,-,N/A,,Clear,250,2013-07-30 11:55:00
7:15 AM,-9999,-9999,N/A,30.19,10.0,Calm,Calm,-,N/A,,Clear,0,2013-07-30 12:15:00
7:35 AM,-9999,-9999,N/A,30.20,10.0,Calm,Calm,-,N/A,,Clear,0,2013-07-30 12:35:00
7:55 AM,-9999,-9999,N/A,30.19,9.0,Calm,Calm,-,N/A,,Clear,0,2013-07-30 12:55:00
8:15 AM,-9999,-9999,N/A,30.19,8.0,Calm,Calm,-,N/A,,Clear,0,2013-07-30 13:15:00
8:35 AM,-9999,-9999,N/A,30.19,9.0,Calm,Calm,-,N/A,,Clear,0,2013-07-30 13:35:00
8:55 AM,-9999,-9999,N/A,30.18,7.0,Calm,Calm,-,N/A,,Clear,0,2013-07-30 13:55:00
9:15 AM,73.4,73.4,100,30.18,6.0,Calm,Calm,-,N/A,,Clear,0,2013-07-30 14:15:00
9:35 AM,75.2,75.2,100,30.17,10.0,Calm,Calm,-,N/A,,Unknown,0,2013-07-30 14:35:00
9:55 AM,78.8,75.2,89,30.17,6.0,SSE,4.6,-,N/A,,Clear,150,2013-07-30 14:55:00
10:15 AM,80.6,71.6,74,30.17,9.0,South,4.6,-,N/A,,Partly Cloudy,190,2013-07-30 15:15:00
10:35 AM,82.4,71.6,70,30.17,10.0,South,3.5,-,N/A,,Clear,190,2013-07-30 15:35:00
10:55 AM,84.2,71.6,66,30.16,10.0,South,4.6,-,N/A,,Clear,190,2013-07-30 15:55:00
11:15 AM,86.0,71.6,62,30.17,10.0,South,6.9,-,N/A,,Clear,170,2013-07-30 16:15:00
11:55 AM,87.8,73.4,62,30.16,9.0,South,6.9,-,N/A,,Clear,190,2013-07-30 16:55:00
12:15 PM,87.8,71.6,58,30.16,10.0,SSW,5.8,-,N/A,,Clear,210,2013-07-30 17:15:00
12:35 PM,87.8,73.4,62,30.15,10.0,WSW,8.1,-,N/A,,Clear,240,2013-07-30 17:35:00
1:15 PM,84.2,73.4,70,30.15,10.0,SSW,6.9,-,N/A,,Clear,200,2013-07-30 18:15:00
1:35 PM,84.2,73.4,70,30.14,10.0,SW,6.9,-,N/A,,Clear,220,2013-07-30 18:35:00
1:55 PM,84.2,75.2,74,30.14,10.0,South,3.5,-,N/A,,Clear,180,2013-07-30 18:55:00
2:15 PM,84.2,78.8,84,30.14,10.0,South,3.5,-,N/A,,Clear,170,2013-07-30 19:15:00
2:35 PM,84.2,78.8,84,30.13,10.0,SSE,4.6,-,N/A,,Clear,160,2013-07-30 19:35:00
2:55 PM,84.2,78.8,84,30.12,10.0,SSE,4.6,-,N/A,,Clear,150,2013-07-30 19:55:00
3:15 PM,84.2,77.0,79,30.12,10.0,South,3.5,-,N/A,,Clear,170,2013-07-30 20:15:00
3:35 PM,84.2,80.6,89,30.11,10.0,SE,3.5,-,N/A,,Clear,140,2013-07-30 20:35:00
3:55 PM,82.4,82.4,100,30.11,10.0,SE,3.5,-,N/A,,Clear,130,2013-07-30 20:55:00
4:15 PM,82.4,82.4,100,30.11,10.0,Calm,Calm,-,N/A,,Clear,0,2013-07-30 21:15:00
4:35 PM,82.4,82.4,100,30.10,10.0,Calm,Calm,-,N/A,,Mostly Cloudy,0,2013-07-30 21:35:00
4:55 PM,80.6,80.6,100,30.10,10.0,Calm,Calm,-,N/A,,Overcast,0,2013-07-30 21:55:00
5:15 PM,80.6,80.6,100,30.10,10.0,North,6.9,-,N/A,,Overcast,360,2013-07-30 22:15:00
5:35 PM,-9999,-9999,N/A,30.11,3.0,NNW,3.5,-,N/A,,Overcast,330,2013-07-30 22:35:00
5:55 PM,-9999,-9999,N/A,30.11,1.0,WSW,4.6,-,N/A,,Overcast,250,2013-07-30 22:55:00
6:15 PM,-9999,-9999,N/A,30.10,4.0,ESE,3.5,-,N/A,,Overcast,120,2013-07-30 23:15:00
6:35 PM,-9999,-9999,N/A,30.10,10.0,ESE,3.5,-,N/A,,Mostly Cloudy,120,2013-07-30 23:35:00
6:55 PM,-9999,-9999,N/A,30.09,10.0,Calm,Calm,-,N/A,,Unknown,0,2013-07-30 23:55:00
7:15 PM,-9999,-9999,N/A,30.12,10.0,WSW,10.4,-,N/A,,Partly Cloudy,240,2013-07-31 00:15:00
7:35 PM,-9999,-9999,N/A,30.09,2.5,East,8.1,-,N/A,,Mostly Cloudy,100,2013-07-31 00:35:00
7:55 PM,-9999,-9999,N/A,30.10,10.0,Calm,Calm,-,N/A,,Overcast,0,2013-07-31 00:55:00
8:15 PM,-9999,-9999,N/A,30.11,10.0,Calm,Calm,-,N/A,,Mostly Cloudy,0,2013-07-31 01:15:00
8:35 PM,-9999,-9999,N/A,30.11,10.0,SE,4.6,-,N/A,,Overcast,130,2013-07-31 01:35:00
8:55 PM,-9999,-9999,N/A,30.11,10.0,Calm,Calm,-,N/A,,Mostly Cloudy,0,2013-07-31 01:55:00
9:15 PM,-9999,-9999,N/A,30.10,10.0,ESE,9.2,-,N/A,,Overcast,120,2013-07-31 02:15:00
9:35 PM,-9999,-9999,N/A,30.11,10.0,East,3.5,-,N/A,,Overcast,90,2013-07-31 02:35:00
9:55 PM,-9999,-9999,N/A,30.12,6.0,Calm,Calm,-,N/A,,Overcast,0,2013-07-31 02:55:00
10:15 PM,-9999,-9999,N/A,30.10,10.0,ENE,6.9,-,N/A,,Mostly Cloudy,60,2013-07-31 03:15:00
10:35 PM,-9999,-9999,N/A,30.10,10.0,SE,4.6,-,N/A,,Overcast,130,2013-07-31 03:35:00
10:55 PM,-9999,-9999,N/A,30.11,10.0,Variable,5.8,-,N/A,,Overcast,0,2013-07-31 03:55:00
11:15 PM,-9999,-9999,N/A,30.12,10.0,Variable,3.5,-,N/A,,Overcast,0,2013-07-31 04:15:00
11:35 PM,-9999,-9999,N/A,30.11,5.0,East,6.9,-,N/A,,Overcast,100,2013-07-31 04:35:00
11:55 PM,-9999,-9999,N/A,30.09,8.0,ESE,5.8,-,N/A,,Overcast,120,2013-07-31 04:55:00